COSMOS 252 DEB *, 3690

Orbit data source: Space-Track

COSMOS 252 DEB *, 3690 is space debris in LEO originally from a launch on Fri, 01 Nov 1968 UTC launched from the Tyuratam Missile And Space Complex (TTMTR). Debris objects in space refer to the collection of defunct objects orbiting the Earth. Examples of debris include non-operational satellites, rocket bodies, and fragments generated from explosions, collisions, or faulty payload assembly.

Loading next visibility...
Identifier
3690, 1968-097AH
Orbit
LEO
Country
Flag of CISCIS
Related business
Manufacturer
Unknown
Mission
Spacecraft
Bus & Motor
Unknown
Mass
Unknown
Launch date (UTC)
1968-11-01 (58 years ago)
Launch vehicle
Unknown
Launch site
Tyuratam Missile And Space Complex (TTMTR)
Object type
Payload
Rocket body
Debris
Shape & HBR
Unknown shape, 0.1 m
Radar Cross Section
Medium (>0.1 m² and <1 m²)

Expand to show TLE details & history
Last TLE update: 1 day ago

TLE from 1 day ago
0 COSMOS 252 DEB *
1 03690U 68097AH  26236.38280565  .00000281  00000-0  37110-3 0  9990
2 03690  62.3484 220.4060 0761353 271.1857  80.2094 12.90722982680972
Epoch: 2026-08-24T09:11Z
TLE epoch observation values (Epoch: 2026-08-24T09:11:14.408Z)
Latitude
0.00004°
Longitude
109.93069°
Altitude
1,244.801 km
Speed
7.259 km/s
True Right ascension
14h 41m 37s
True Declination
0° 00' 00"
Sunlit
Object was in daylight at epoch
Visualization orbit readout
Latitude
Unknown
Longitude
Unknown
Altitude
Unknown
Speed
Unknown
Apparent Right ascension
Unknown
Apparent Declination
Unknown
Sunlit
N/A
Visualization observer readout
Local Sidereal Time
01:57:10
Azimuth
Unknown
Elevation
Unknown
Doppler factor
Unknown
Orbital elements
Apogee altitude
1,882.034 km
Perigee altitude
713.239 km
Semi-major axis
7,675.774 km
Eccentricity
0.07614
Inclination
62.3484°
RAAN
220.406°
Arg. of periapsis
271.1857°
True anomaly
88.91445°
Mean anomaly
80.2094°
Eccentric anomaly
84.55193°
Mean motion
3.22745 °/min
Orbital period
111.54 mins
BSTAR
0.0003711
Loading maneuver chart data...
Computing Atmospheric mass density...
Loading historical data...
Loading historical data...
Loading historical data...
Loading historical data...
Loading historical data...
Loading historical data...
Loading historical data...

Documentation

Showing up to 5 results
|